DLH9928 EDDF-LETL

Flight info

Callsign DLH9928
Flight time N/A
Altitude 39000
Route ANEKI2L/18 ANEKI Y163 HERBI Y164 MOPAN/N0476F410 DCT LUTIX DCT BENOT DCT NEMOS DCT NINTU DCT REPSI DCT LERGA DCT MINSO DCT NARAK DCT AGN DCT MAQAB DCT TIVLI N869 EXEMU M176 DISVU
Aircraft A346/H-SDE2E3FGHIJ3J4J5M1RWXY/LB1D1

Departure

Time N/A
Airport Frankfurt Main Airport (EDDF)

Arrival

Time 2026-05-06 17:47
Airport Teruel Airport (LETL)
Time Latitude Longitude Altitude Speed Heading
2026-05-06 17:14 43.37495 0.24392 40980 ft 446 kts 223°
2026-05-06 17:15 43.32832 0.18749 40991 ft 446 kts 223°
2026-05-06 17:15 43.28166 0.13117 40990 ft 446 kts 223°
2026-05-06 17:16 43.23498 0.07487 40993 ft 446 kts 223°
2026-05-06 17:16 43.18836 0.01877 40987 ft 445 kts 223°
2026-05-06 17:17 43.14180 -0.03706 40996 ft 446 kts 223°
2026-05-06 17:17 43.09534 -0.09262 40995 ft 446 kts 223°
2026-05-06 17:18 43.04851 -0.14850 40990 ft 446 kts 223°
2026-05-06 17:18 43.00162 -0.20430 40977 ft 445 kts 223°
2026-05-06 17:19 42.95482 -0.25985 40987 ft 445 kts 223°
2026-05-06 17:19 42.90807 -0.31524 40985 ft 445 kts 223°
2026-05-06 17:20 42.86067 -0.36983 40978 ft 446 kts 220°
2026-05-06 17:20 42.80978 -0.41846 40973 ft 448 kts 214°
2026-05-06 17:21 42.75555 -0.45959 40876 ft 451 kts 209°
2026-05-06 17:21 42.72706 -0.47744 40546 ft 451 kts 206°
2026-05-06 17:21 42.69788 -0.49332 40137 ft 452 kts 204°
2026-05-06 17:21 42.66847 -0.50874 39651 ft 452 kts 204°
2026-05-06 17:22 42.63910 -0.52419 39125 ft 452 kts 204°
2026-05-06 17:22 42.60969 -0.53965 38558 ft 453 kts 204°
2026-05-06 17:22 42.58027 -0.55509 37928 ft 452 kts 204°
2026-05-06 17:22 42.55089 -0.57044 37320 ft 451 kts 204°
2026-05-06 17:23 42.52162 -0.58572 36750 ft 449 kts 205°
2026-05-06 17:23 42.49252 -0.60092 36157 ft 448 kts 205°
2026-05-06 17:23 42.46384 -0.61590 35572 ft 448 kts 205°
2026-05-06 17:23 42.43480 -0.63105 34980 ft 447 kts 205°
2026-05-06 17:24 42.40577 -0.64617 34400 ft 446 kts 205°
2026-05-06 17:24 42.37677 -0.66129 33778 ft 446 kts 205°
2026-05-06 17:24 42.34791 -0.67633 33168 ft 444 kts 205°
2026-05-06 17:24 42.31918 -0.69127 32679 ft 439 kts 205°
2026-05-06 17:25 42.29086 -0.70597 32289 ft 432 kts 205°
2026-05-06 17:25 42.26292 -0.72046 31974 ft 428 kts 205°
2026-05-06 17:25 42.23513 -0.73488 31555 ft 427 kts 205°
2026-05-06 17:25 42.21710 -0.74424 31257 ft 425 kts 205°
2026-05-06 17:26 42.18981 -0.75837 30813 ft 421 kts 205°
2026-05-06 17:26 42.16261 -0.77242 30434 ft 416 kts 205°
2026-05-06 17:26 42.13566 -0.78634 30062 ft 412 kts 205°
2026-05-06 17:26 42.10900 -0.80011 29604 ft 408 kts 205°
2026-05-06 17:27 42.08253 -0.81377 29184 ft 404 kts 205°
2026-05-06 17:27 42.05643 -0.82722 28782 ft 400 kts 205°
2026-05-06 17:27 42.03058 -0.84055 28382 ft 396 kts 205°
2026-05-06 17:27 42.00522 -0.85361 27990 ft 393 kts 205°
2026-05-06 17:28 41.97984 -0.86669 27584 ft 390 kts 205°
2026-05-06 17:28 41.95457 -0.87967 27204 ft 387 kts 205°
2026-05-06 17:28 41.92950 -0.89254 26814 ft 384 kts 204°
2026-05-06 17:28 41.90466 -0.90529 26440 ft 381 kts 204°
2026-05-06 17:29 41.87995 -0.91795 26073 ft 379 kts 204°
2026-05-06 17:29 41.85535 -0.93053 25698 ft 377 kts 204°
2026-05-06 17:29 41.83091 -0.94302 25329 ft 375 kts 204°
2026-05-06 17:29 41.80655 -0.95546 24941 ft 374 kts 204°
2026-05-06 17:30 41.78220 -0.96787 24569 ft 372 kts 203°
2026-05-06 17:30 41.75802 -0.98016 24177 ft 371 kts 204°
2026-05-06 17:30 41.73408 -0.99229 23828 ft 369 kts 204°
2026-05-06 17:30 41.71013 -1.00449 23449 ft 368 kts 204°
2026-05-06 17:31 41.68625 -1.01675 23028 ft 366 kts 205°
2026-05-06 17:31 41.66316 -1.03076 22623 ft 362 kts 209°
2026-05-06 17:31 41.64121 -1.04706 22220 ft 359 kts 214°
2026-05-06 17:31 41.62038 -1.06543 21821 ft 357 kts 216°
2026-05-06 17:32 41.59996 -1.08418 21450 ft 355 kts 217°
2026-05-06 17:32 41.57968 -1.10287 21075 ft 353 kts 217°
2026-05-06 17:32 41.55946 -1.12148 20695 ft 351 kts 217°
2026-05-06 17:32 41.53961 -1.13971 20334 ft 349 kts 217°
2026-05-06 17:33 41.51966 -1.15806 19968 ft 348 kts 216°
2026-05-06 17:33 41.49974 -1.17635 19600 ft 346 kts 216°
2026-05-06 17:33 41.47984 -1.19457 19226 ft 345 kts 216°
2026-05-06 17:33 41.46004 -1.21272 18858 ft 344 kts 216°
2026-05-06 17:34 41.44024 -1.23086 18516 ft 351 kts 216°
2026-05-06 17:34 41.41923 -1.24840 18262 ft 361 kts 206°
2026-05-06 17:34 41.39466 -1.25533 18002 ft 365 kts 185°
2026-05-06 17:34 41.36923 -1.25527 17743 ft 365 kts 180°
2026-05-06 17:35 41.34392 -1.25432 17471 ft 362 kts 180°
2026-05-06 17:35 41.31876 -1.25366 17199 ft 360 kts 181°
2026-05-06 17:35 41.29373 -1.25342 16931 ft 359 kts 181°
2026-05-06 17:36 41.24406 -1.25372 16429 ft 355 kts 182°
2026-05-06 17:36 41.21969 -1.25409 16172 ft 353 kts 182°
2026-05-06 17:36 41.19518 -1.25454 15914 ft 352 kts 182°
2026-05-06 17:36 41.17070 -1.25501 15659 ft 350 kts 182°
2026-05-06 17:37 41.14638 -1.25547 15403 ft 349 kts 182°
2026-05-06 17:37 41.12217 -1.25592 15150 ft 347 kts 182°
2026-05-06 17:37 41.09803 -1.25640 14905 ft 345 kts 182°
2026-05-06 17:37 41.07408 -1.25687 14672 ft 344 kts 182°
2026-05-06 17:38 41.05019 -1.25735 14454 ft 342 kts 182°
2026-05-06 17:38 41.02647 -1.25782 14245 ft 341 kts 182°
2026-05-06 17:38 41.00274 -1.25829 13951 ft 340 kts 182°
2026-05-06 17:38 40.97918 -1.25876 13594 ft 338 kts 182°
2026-05-06 17:39 40.95575 -1.25922 13212 ft 335 kts 182°
2026-05-06 17:39 40.93264 -1.25967 12879 ft 329 kts 182°
2026-05-06 17:39 40.91002 -1.26011 12542 ft 323 kts 182°
2026-05-06 17:39 40.88767 -1.26054 12192 ft 317 kts 182°
2026-05-06 17:40 40.86601 -1.26096 11828 ft 313 kts 182°
2026-05-06 17:40 40.84440 -1.26136 11487 ft 308 kts 182°
2026-05-06 17:40 40.82312 -1.26169 11141 ft 304 kts 182°
2026-05-06 17:40 40.80212 -1.26192 10625 ft 298 kts 182°
2026-05-06 17:41 40.78176 -1.26207 10164 ft 286 kts 182°
2026-05-06 17:41 40.76200 -1.26223 9729 ft 283 kts 182°
2026-05-06 17:41 40.74228 -1.26240 9320 ft 283 kts 182°
2026-05-06 17:41 40.72253 -1.26262 8903 ft 284 kts 182°
2026-05-06 17:42 40.70280 -1.26280 8483 ft 284 kts 179°
2026-05-06 17:42 40.68314 -1.25985 8075 ft 285 kts 172°
2026-05-06 17:42 40.66353 -1.25546 7669 ft 285 kts 171°
2026-05-06 17:42 40.64432 -1.25107 7217 ft 279 kts 171°
2026-05-06 17:43 40.62569 -1.24696 6908 ft 266 kts 171°
2026-05-06 17:43 40.60793 -1.24318 6653 ft 255 kts 170°
2026-05-06 17:43 40.59054 -1.23956 6392 ft 252 kts 170°
2026-05-06 17:43 40.57368 -1.23615 6109 ft 242 kts 170°
2026-05-06 17:44 40.55734 -1.23286 5789 ft 229 kts 170°
2026-05-06 17:44 40.54209 -1.22978 5368 ft 220 kts 171°
2026-05-06 17:44 40.52746 -1.22686 5152 ft 201 kts 170°
2026-05-06 17:44 40.51424 -1.22421 4928 ft 184 kts 169°
2026-05-06 17:45 40.50211 -1.22245 4783 ft 167 kts 178°
2026-05-06 17:45 40.49081 -1.22187 4527 ft 161 kts 179°
2026-05-06 17:45 40.47966 -1.22160 4306 ft 159 kts 179°
2026-05-06 17:45 40.46864 -1.22090 4157 ft 158 kts 177°
2026-05-06 17:46 40.45769 -1.22013 3952 ft 157 kts 179°
2026-05-06 17:46 40.44674 -1.21955 3763 ft 157 kts 179°
2026-05-06 17:46 40.43579 -1.21890 3548 ft 158 kts 179°
2026-05-06 17:46 40.42477 -1.21828 3382 ft 159 kts 180°
2026-05-06 17:47 40.41440 -1.21777 3361 ft 121 kts 176°
2026-05-06 17:47 40.40853 -1.21741 3373 ft 47 kts 178°
2026-05-06 17:47 40.40532 -1.21725 3380 ft 35 kts 181°
2026-05-06 17:47 40.40406 -1.21732 3392 ft 2 kts 118°
2026-05-06 17:48 40.40461 -1.21697 3389 ft 15 kts 329°
2026-05-06 17:48 40.40619 -1.21728 3373 ft 33 kts 359°
2026-05-06 17:48 40.40850 -1.21739 3373 ft 34 kts 357°
2026-05-06 17:48 40.41096 -1.21754 3359 ft 35 kts 357°
2026-05-06 17:49 40.41305 -1.21765 3355 ft 24 kts 354°
2026-05-06 17:49 40.41363 -1.21872 3363 ft 11 kts 268°
2026-05-06 17:49 40.41363 -1.22042 3361 ft 18 kts 268°
2026-05-06 17:49 40.41357 -1.22220 3361 ft 21 kts 267°
2026-05-06 17:50 40.41378 -1.22353 3370 ft 11 kts 340°
2026-05-06 17:50 40.41426 -1.22358 3369 ft 5 kts 358°
2026-05-06 17:50 40.41432 -1.22358 3368 ft 0 kts 357°